| time (UTC) | temp C | wind direction | speed KPH | gust KPH | rain 1hr cm | rain 24hr cm | rain mn cm | humidity % | barometer mb |
| 20260506033341 | 5 | 345 | 0.0 | 0.0 | 0.00 | 0.00 | 0.00 | 80 | 1016.0 |
| 20260506032355 | 5 | 288 | 0.0 | 3.2 | 0.00 | 0.00 | 0.00 | 80 | 1016.0 |
| 20260506031417 | 5 | 9 | 0.0 | 0.0 | 0.00 | 0.00 | 0.00 | 81 | 1016.0 |
| 20260506030437 | 5 | 234 | 0.0 | 0.0 | 0.00 | 0.00 | 0.00 | 81 | 1015.9 |
| 20260506024300 | 5 | 14 | 0.0 | 0.0 | 0.00 | 0.00 | 0.00 | 80 | 1015.9 |
| 20260506023307 | 5 | 101 | 0.0 | 4.8 | 0.00 | 0.00 | 0.00 | 80 | 1015.9 |
| 20260506022320 | 6 | 1 | 0.0 | 0.0 | 0.00 | 0.00 | 0.00 | 80 | 1015.9 |
| 20260506021341 | 6 | 110 | 0.0 | 0.0 | 0.00 | 0.00 | 0.00 | 79 | 1016.0 |
| 20260506020335 | 6 | 35 | 0.0 | 6.4 | 0.00 | 0.00 | 0.00 | 79 | 1016.1 |
| 20260506015340 | 6 | 2 | 0.0 | 6.4 | 0.00 | 0.00 | 0.00 | 78 | 1016.2 |
| 20260506014335 | 6 | 243 | 0.0 | 4.8 | 0.00 | 0.00 | 0.00 | 78 | 1016.1 |
| 20260506013322 | 7 | 12 | 0.0 | 6.4 | 0.00 | 0.00 | 0.00 | 78 | 1016.2 |
| 20260506012328 | 7 | 75 | 0.0 | 8.0 | 0.00 | 0.00 | 0.00 | 78 | 1016.2 |
| 20260506010207 | 7 | 25 | 0.0 | 9.7 | 0.00 | 0.00 | 0.00 | 77 | 1016.3 |
| 20260506005159 | 7 | 271 | 0.0 | 8.0 | 0.00 | 0.00 | 0.00 | 77 | 1016.3 |
| 20260506004141 | 7 | 64 | 0.0 | 3.2 | 0.00 | 0.00 | 0.00 | 77 | 1016.4 |
| 20260506001948 | 7 | 319 | 0.0 | 8.0 | 0.00 | 0.00 | 0.00 | 77 | 1016.6 |
| 20260506000950 | 7 | 44 | 0.0 | 8.0 | 0.00 | 0.00 | 0.00 | 76 | 1016.5 |
| 20260505235933 | 7 | 29 | 0.0 | 11.3 | 0.00 | 0.00 | 0.00 | 76 | 1016.5 |
| 20260505234930 | 7 | 338 | 1.6 | 8.0 | 0.00 | 0.00 | 0.00 | 76 | 1016.6 |
| 20260505232752 | 7 | 285 | 1.6 | 11.3 | 0.00 | 0.00 | 0.00 | 75 | 1016.6 |
| 20260505231725 | 7 | 338 | 1.6 | 11.3 | 0.00 | 0.00 | 0.00 | 75 | 1016.7 |
| 20260505225620 | 7 | 31 | 1.6 | 9.7 | 0.00 | 0.00 | 0.00 | 74 | 1016.7 |
| 20260505223500 | 8 | 342 | 1.6 | 11.3 | 0.00 | 0.00 | 0.00 | 73 | 1016.8 |
| 20260505222524 | 8 | 101 | 1.6 | 11.3 | 0.00 | 0.00 | 0.00 | 72 | 1016.8 |
| 20260505221511 | 8 | 2 | 1.6 | 14.5 | 0.00 | 0.00 | 0.00 | 72 | 1016.8 |
| 20260505220450 | 8 | 13 | 1.6 | 14.5 | 0.00 | 0.00 | 0.00 | 71 | 1016.8 |
| 20260505215503 | 8 | 55 | 0.0 | 9.7 | 0.00 | 0.00 | 0.00 | 71 | 1016.9 |
| 20260505214507 | 8 | 4 | 1.6 | 9.7 | 0.00 | 0.00 | 0.00 | 71 | 1016.8 |
| 20260505212420 | 8 | 115 | 1.6 | 6.4 | 0.00 | 0.00 | 0.00 | 71 | 1016.7 |
| 20260505211345 | 8 | 70 | 0.0 | 9.7 | 0.00 | 0.00 | 0.00 | 71 | 1016.7 |
| 20260505210324 | 8 | 335 | 1.6 | 9.7 | 0.00 | 0.00 | 0.00 | 71 | 1016.6 |
| 20260505205339 | 8 | 338 | 1.6 | 11.3 | 0.00 | 0.00 | 0.00 | 70 | 1016.6 |
| 20260505204330 | 8 | 3 | 1.6 | 11.3 | 0.00 | 0.00 | 0.00 | 69 | 1016.5 |
| 20260505203325 | 9 | 274 | 1.6 | 12.9 | 0.00 | 0.00 | 0.00 | 70 | 1016.5 |
| 20260505202255 | 9 | 337 | 3.2 | 14.5 | 0.00 | 0.00 | 0.00 | 70 | 1016.4 |
| 20260505201222 | 9 | 99 | 3.2 | 16.1 | 0.00 | 0.00 | 0.00 | 71 | 1016.2 |
| 20260505200219 | 9 | 78 | 3.2 | 16.1 | 0.00 | 0.00 | 0.00 | 71 | 1016.2 |
| 20260505192908 | 10 | 98 | 3.2 | 14.5 | 0.00 | 0.00 | 0.00 | 72 | 1015.9 |
| 20260505191917 | 10 | 319 | 4.8 | 14.5 | 0.00 | 0.00 | 0.00 | 72 | 1015.8 |
| 20260505185747 | 10 | 30 | 1.6 | 16.1 | 0.00 | 0.00 | 0.00 | 70 | 1015.6 |
| 20260505183641 | 11 | 89 | 1.6 | 8.0 | 0.00 | 0.00 | 0.00 | 73 | 1015.4 |
| 20260505182655 | 11 | 91 | 1.6 | 8.0 | 0.00 | 0.00 | 0.00 | 73 | 1015.3 |
| 20260505181646 | 11 | 255 | 3.2 | 14.5 | 0.00 | 0.00 | 0.00 | 73 | 1015.3 |
| 20260505180706 | 11 | 352 | 3.2 | 14.5 | 0.00 | 0.00 | 0.00 | 72 | 1015.3 |
| 20260505175720 | 11 | 84 | 1.6 | 9.7 | 0.00 | 0.00 | 0.00 | 73 | 1015.3 |
| 20260505174745 | 11 | 26 | 3.2 | 11.3 | 0.00 | 0.00 | 0.00 | 73 | 1015.2 |
| 20260505173737 | 11 | 58 | 3.2 | 11.3 | 0.00 | 0.00 | 0.00 | 73 | 1015.2 |
| 20260505172707 | 11 | 89 | 3.2 | 11.3 | 0.00 | 0.00 | 0.00 | 73 | 1015.1 |
| 20260505164233 | 12 | 319 | 3.2 | 12.9 | 0.00 | 0.00 | 0.00 | 70 | 1015.0 |
| 20260505163216 | 12 | 241 | 3.2 | 9.7 | 0.00 | 0.00 | 0.00 | 70 | 1015.0 |
| 20260505162142 | 12 | 54 | 4.8 | 12.9 | 0.00 | 0.00 | 0.00 | 69 | 1014.9 |
| 20260505161142 | 13 | 50 | 4.8 | 14.5 | 0.00 | 0.00 | 0.00 | 67 | 1014.8 |
| 20260505160123 | 14 | 2 | 1.6 | 14.5 | 0.00 | 0.00 | 0.00 | 61 | 1014.8 |
| 20260505152949 | 14 | 22 | 1.6 | 8.0 | 0.00 | 0.00 | 0.00 | 59 | 1014.7 |
| 20260505151931 | 14 | 76 | 1.6 | 6.4 | 0.00 | 0.00 | 0.00 | 59 | 1014.7 |
| 20260505150922 | 14 | 74 | 0.0 | 8.0 | 0.00 | 0.00 | 0.00 | 57 | 1014.7 |
| 20260505140547 | 14 | 25 | 0.0 | 4.8 | 0.00 | 0.00 | 0.00 | 59 | 1014.7 |
| 20260505124503 | 14 | 19 | 1.6 | 12.9 | 0.00 | 0.00 | 0.00 | 60 | 1014.7 |
| 20260505123442 | 14 | 264 | 0.0 | 1.6 | 0.00 | 0.00 | 0.00 | 59 | 1014.6 |
| 20260505122429 | 14 | 70 | 0.0 | 9.7 | 0.00 | 0.00 | 0.00 | 57 | 1014.5 |
| 20260505121448 | 15 | 11 | 1.6 | 9.7 | 0.00 | 0.00 | 0.00 | 57 | 1014.6 |
| 20260505120420 | 15 | 340 | 0.0 | 6.4 | 0.00 | 0.00 | 0.00 | 58 | 1014.6 |
| 20260505115425 | 15 | 237 | 0.0 | 6.4 | 0.00 | 0.00 | 0.00 | 56 | 1014.5 |
| 20260505114405 | 15 | 315 | 0.0 | 6.4 | 0.00 | 0.00 | 0.00 | 56 | 1014.6 |
| 20260505113345 | 15 | 19 | 0.0 | 4.8 | 0.00 | 0.00 | 0.00 | 56 | 1014.6 |
| 20260505112350 | 15 | 226 | 0.0 | 6.4 | 0.00 | 0.00 | 0.00 | 56 | 1014.7 |
| 20260505111330 | 15 | 274 | 0.0 | 6.4 | 0.00 | 0.00 | 0.00 | 56 | 1014.7 |
| 20260505110333 | 14 | 2 | 0.0 | 4.8 | 0.00 | 0.00 | 0.00 | 59 | 1014.7 |
| 20260505100202 | 13 | 90 | 1.6 | 9.7 | 0.00 | 0.00 | 0.00 | 57 | 1014.9 |
| 20260505095135 | 13 | 18 | 1.6 | 11.3 | 0.00 | 0.00 | 0.00 | 57 | 1014.9 |
| 20260505094157 | 13 | 62 | 3.2 | 11.3 | 0.00 | 0.00 | 0.00 | 58 | 1015.0 |
| 20260505093140 | 13 | 66 | 0.0 | 8.0 | 0.00 | 0.00 | 0.00 | 58 | 1015.1 |
| 20260505092134 | 13 | 229 | 0.0 | 9.7 | 0.00 | 0.00 | 0.00 | 60 | 1015.1 |
| 20260505091102 | 13 | 17 | 1.6 | 9.7 | 0.00 | 0.00 | 0.00 | 60 | 1015.0 |
| 20260505090119 | 13 | 91 | 0.0 | 6.4 | 0.00 | 0.00 | 0.00 | 61 | 1015.1 |
| 20260505085126 | 13 | 265 | 0.0 | 6.4 | 0.00 | 0.00 | 0.00 | 62 | 1015.1 |
| 20260505084127 | 13 | 25 | 1.6 | 12.9 | 0.00 | 0.00 | 0.00 | 63 | 1015.2 |
| 20260505083116 | 13 | 240 | 0.0 | 11.3 | 0.00 | 0.00 | 0.00 | 63 | 1015.2 |
| 20260505082136 | 12 | 243 | 1.6 | 11.3 | 0.00 | 0.00 | 0.00 | 65 | 1015.2 |
| 20260505081105 | 12 | 77 | 0.0 | 8.0 | 0.00 | 0.00 | 0.00 | 67 | 1015.3 |
| 20260505080054 | 12 | 24 | 0.0 | 8.0 | 0.00 | 0.00 | 0.00 | 67 | 1015.2 |
| 20260505075110 | 12 | 53 | 0.0 | 6.4 | 0.00 | 0.00 | 0.00 | 67 | 1015.2 |
| 20260505074102 | 12 | 49 | 0.0 | 4.8 | 0.00 | 0.00 | 0.00 | 68 | 1015.2 |
| 20260505071925 | 11 | 105 | 0.0 | 6.4 | 0.00 | 0.00 | 0.00 | 71 | 1015.2 |
| 20260505070925 | 11 | 25 | 0.0 | 4.8 | 0.00 | 0.00 | 0.00 | 73 | 1015.3 |
| 20260505065927 | 10 | 278 | 0.0 | 4.8 | 0.00 | 0.00 | 0.00 | 75 | 1015.3 |
| 20260505064943 | 10 | 54 | 0.0 | 1.6 | 0.00 | 0.00 | 0.00 | 79 | 1015.4 |
| 20260505063937 | 9 | 257 | 0.0 | 1.6 | 0.00 | 0.00 | 0.00 | 78 | 1015.4 |
| 20260505061823 | 10 | 225 | 0.0 | 4.8 | 0.00 | 0.00 | 0.00 | 79 | 1015.4 |
| 20260505060823 | 9 | 249 | 0.0 | 3.2 | 0.00 | 0.00 | 0.00 | 83 | 1015.4 |
| 20260505055800 | 8 | 252 | 0.0 | 1.6 | 0.00 | 0.00 | 0.00 | 86 | 1015.4 |
| 20260505054811 | 7 | 283 | 0.0 | 0.0 | 0.00 | 0.00 | 0.00 | 88 | 1015.4 |
| 20260505053745 | 6 | 268 | 0.0 | 1.6 | 0.00 | 0.00 | 0.00 | 89 | 1015.3 |
| 20260505052737 | 6 | 262 | 0.0 | 3.2 | 0.00 | 0.00 | 0.00 | 90 | 1015.3 |
| 20260505051747 | 5 | 274 | 0.0 | 0.0 | 0.00 | 0.00 | 0.00 | 90 | 1015.3 |
| 20260505050805 | 5 | 250 | 0.0 | 0.0 | 0.00 | 0.00 | 0.00 | 90 | 1015.3 |
| 20260505040509 | 6 | 252 | 0.0 | 0.0 | 0.00 | 0.00 | 0.00 | 89 | 1014.8 |
| 20260505035530 | 6 | 250 | 0.0 | 0.0 | 0.00 | 0.00 | 0.00 | 89 | 1014.8 |
| 20260505034504 | 6 | 289 | 0.0 | 0.0 | 0.00 | 0.00 | 0.00 | 90 | 1014.8 |